Hilo, HI

2:59 PM HST on July 22, 2017 (GMT -1000)
Hilo International

Weather History for PHTO - February, 2014

Change the Weather History Date:

Thursday, February 13, 2014

  Actual Average Record
Temperature  
Mean Temperature 71 °F 71 °F  
Max Temperature 76 °F 79 °F 88 °F (1981)
Min Temperature 66 °F 63 °F 54 °F (1995)
Degree Days  
Heating Degree Days 0 0  
Month to date heating degree days 0 0  
Since 1 July heating degree days 0 0  
Cooling Degree Days 6 6  
Month to date cooling degree days 126 78  
Year to date cooling degree days 338 276  
Growing Degree Days 22 (Base 50)    
Moisture  
Dew Point 70 °F    
Average Humidity 91    
Maximum Humidity 100    
Minimum Humidity 81    
Precipitation  
Precipitation 0.14 in 0.34 in 3.21 in (2005)
Month to date precipitation 0.87 4.35  
Year to date precipitation 6.53 13.61  
Snow  
Snow 0.00 in - - ()
Month to date snowfall 0.0  
Since 1 July snowfall 0.0  
Snow Depth 0.00 in    
Sea Level Pressure  
Sea Level Pressure 29.95 in    
Wind  
Wind Speed 4 mph (South)    
Max Wind Speed 13 mph    
Max Gust Speed 15 mph    
Visibility 6 miles    
Events Rain    
T = Trace of Precipitation, MM = Missing Value Source: NWS Daily Summary

Daily Weather History Graph

Daily Weather History Graph

Search for Another Location

Airport or City:

Trip Planner

Search our weather history database for the weather conditions in past years. The results will help you decide how hot, cold, wet, or windy it might be!

Date:

Astronomy

Feb. 13, 2014 Rise Set
Actual Time 6:50 AM HST 6:18 PM HST
Civil Twilight 6:27 AM HST 6:41 PM HST
Nautical Twilight 6:01 AM HST 7:07 PM HST
Astronomical Twilight 5:35 AM HST 7:33 PM HST
Moon 5:35 PM HST (2/13) 5:48 AM HST (2/13)
Length of Visible Light 12h 13m
Length of Day
11h 28m
Waxing Gibbous, 99% of the Moon is Illuminated
Feb 13
Waxing Gibbous
Feb 14
Full
Feb 22
Last Quarter
Feb 28
New
Mar 8
First Quarter

Hourly Weather History & Observations

Time (HST) Temp. Dew Point Humidity Pressure Visibility Wind Dir Wind Speed Gust Speed Precip Events Conditions
12:53 AM 66.9 °F 64.0 °F 90% 29.94 in 10.0 mi SE 4.6 mph - N/A   Partly Cloudy
1:53 AM 68.0 °F 63.0 °F 84% 29.92 in 10.0 mi SSW 3.5 mph - N/A   Mostly Cloudy
2:53 AM 70.0 °F 66.0 °F 87% 29.91 in 8.0 mi South 6.9 mph - 0.00 in Rain Light Rain
3:53 AM 69.1 °F 66.0 °F 90% 29.90 in 10.0 mi South 3.5 mph - 0.00 in   Scattered Clouds
4:53 AM 69.1 °F 66.9 °F 93% 29.90 in 10.0 mi Calm Calm - N/A   Mostly Cloudy
5:53 AM 69.1 °F 66.9 °F 93% 29.93 in 10.0 mi Calm Calm - N/A   Overcast
6:53 AM 69.1 °F 66.0 °F 90% 29.95 in 10.0 mi Calm Calm - N/A   Mostly Cloudy
7:53 AM 70.0 °F 69.1 °F 97% 29.98 in 6.0 mi ESE 4.6 mph - 0.00 in Rain Light Rain
8:27 AM 70.0 °F 70.0 °F 100% 29.99 in 6.0 mi South 3.5 mph - 0.02 in Rain Light Rain
8:53 AM 71.1 °F 70.0 °F 96% 29.99 in 10.0 mi South 3.5 mph - 0.02 in   Overcast
9:51 AM 69.8 °F 69.8 °F 100% 30.01 in 1.5 mi SE 3.5 mph - 0.01 in Rain Light Rain
9:53 AM 70.0 °F 69.1 °F 97% 30.01 in 1.5 mi ESE 3.5 mph - 0.01 in Rain Light Rain
10:04 AM 71.1 °F 70.0 °F 96% 30.00 in 1.5 mi Calm Calm - 0.01 in Rain Light Rain
10:16 AM 71.1 °F 70.0 °F 96% 30.00 in 2.0 mi NW 3.5 mph - 0.01 in Rain Light Rain
10:27 AM 72.0 °F 71.1 °F 97% 30.00 in 2.0 mi Calm Calm - 0.01 in   Overcast
10:34 AM 72.0 °F 71.1 °F 97% 30.00 in 2.0 mi Calm Calm - 0.01 in   Overcast
10:45 AM 72.0 °F 71.1 °F 97% 29.99 in 2.0 mi Calm Calm - 0.01 in Rain Light Rain
10:53 AM 72.0 °F 71.1 °F 97% 29.99 in 2.0 mi Calm Calm - 0.01 in Rain Light Rain
11:19 AM 72.0 °F 71.1 °F 97% 29.98 in 2.0 mi ESE 4.6 mph - 0.02 in Rain Light Rain
11:33 AM 72.0 °F 72.0 °F 100% 29.98 in 1.5 mi ESE 6.9 mph - 0.02 in Rain Light Rain
11:40 AM 72.0 °F 72.0 °F 100% 29.97 in 1.5 mi SE 5.8 mph - 0.03 in Rain Light Rain
11:53 AM 72.0 °F 72.0 °F 100% 29.96 in 2.0 mi Variable 3.5 mph - 0.03 in Rain Light Rain
11:57 AM 73.0 °F 72.0 °F 96% 29.96 in 3.0 mi SSE 4.6 mph - 0.00 in Rain Light Rain
12:41 PM 73.9 °F 72.0 °F 93% 29.94 in 8.0 mi South 5.8 mph - 0.00 in   Overcast
12:49 PM 73.4 °F 71.6 °F 94% 29.94 in 2.5 mi SSE 6.9 mph - 0.00 in Rain Light Rain
12:53 PM 73.0 °F 72.0 °F 96% 29.94 in 2.5 mi SSE 6.9 mph - 0.00 in Rain Light Rain
1:06 PM 73.0 °F 72.0 °F 96% 29.94 in 3.0 mi SSE 6.9 mph - 0.00 in Rain Light Rain
1:09 PM 73.0 °F 72.0 °F 96% 29.94 in 3.0 mi SSE 6.9 mph - 0.00 in Rain Light Rain
1:18 PM 72.0 °F 72.0 °F 100% 29.93 in 2.5 mi SSE 6.9 mph - 0.01 in Rain Light Rain
1:21 PM 73.0 °F 72.0 °F 96% 29.93 in 3.0 mi SSE 6.9 mph - 0.01 in Rain Light Rain
1:53 PM 73.9 °F 71.1 °F 91% 29.91 in 9.0 mi SSE 9.2 mph - 0.01 in   Overcast
2:31 PM 73.9 °F 72.0 °F 93% 29.90 in 10.0 mi Variable 4.6 mph - N/A   Overcast
2:44 PM 73.9 °F 72.0 °F 93% 29.91 in 10.0 mi SSW 8.1 mph - N/A   Overcast
2:53 PM 72.0 °F 71.1 °F 97% 29.91 in 3.0 mi South 8.1 mph - 0.00 in Rain Light Rain
3:00 PM 72.0 °F 71.1 °F 97% 29.91 in 6.0 mi Variable 5.8 mph - 0.01 in Rain Light Rain
3:53 PM 75.0 °F 70.0 °F 84% 29.89 in 10.0 mi SW 3.5 mph - 0.01 in   Overcast
4:53 PM 75.0 °F 69.1 °F 82% 29.90 in 10.0 mi Calm Calm - N/A   Overcast
5:53 PM 75.0 °F 70.0 °F 84% 29.92 in 10.0 mi East 3.5 mph - N/A   Overcast
6:01 PM 73.9 °F 71.1 °F 91% 29.93 in 10.0 mi SE 4.6 mph - N/A   Overcast
6:32 PM 71.1 °F 70.0 °F 96% 29.94 in 7.0 mi WSW 6.9 mph - 0.04 in Rain Light Rain
6:53 PM 71.1 °F 69.1 °F 93% 29.94 in 10.0 mi WSW 8.1 mph - 0.05 in   Overcast
7:53 PM 71.1 °F 70.0 °F 96% 29.96 in 10.0 mi Calm Calm - N/A   Overcast
8:29 PM 71.1 °F 71.1 °F 100% 29.98 in 10.0 mi SSW 5.8 mph - N/A   Overcast
8:53 PM 71.1 °F 70.0 °F 96% 29.99 in 10.0 mi WSW 4.6 mph - N/A   Overcast
9:53 PM 71.1 °F 70.0 °F 96% 29.99 in 10.0 mi Calm Calm - N/A   Mostly Cloudy
10:53 PM 70.0 °F 69.1 °F 97% 29.98 in 10.0 mi SSW 4.6 mph - N/A   Overcast
11:53 PM 70.0 °F 68.0 °F 93% 29.97 in 10.0 mi SW 4.6 mph - N/A   Partly Cloudy